Time,TemperatureF,DewpointF,PressureIn,WindDirection,WindDirectionDegrees,WindSpeedMPH,WindSpeedGustMPH,Humidity,HourlyPrecipIn,Conditions,Clouds,dailyrainin,SoftwareType,DateUTC
2013-09-01 18:54:00,75.5,57.2,29.60,NW,315,0.0,0.0,53,0.00,,,0.00,WUHU216HW,2013-09-01 23:54:00,
2013-09-01 18:55:00,75.5,57.2,29.60,NW,315,0.0,0.0,53,0.00,,,0.00,WUHU216HW,2013-09-01 23:55:00,
2013-09-01 18:56:00,75.3,57.0,29.61,NW,315,0.0,0.0,53,0.00,,,0.00,WUHU216HW,2013-09-01 23:56:00,
2013-09-01 18:59:00,75.0,56.7,29.60,NW,315,0.0,0.0,53,0.00,,,0.00,WUHU216HW,2013-09-01 23:59:00,
2013-09-01 19:04:00,74.8,57.0,29.61,NW,315,0.0,0.0,54,0.00,,,0.00,WUHU216HW,2013-09-02 00:04:00,
2013-09-01 19:09:00,74.1,56.8,29.60,NW,315,0.0,0.0,55,0.00,,,0.00,WUHU216HW,2013-09-02 00:09:00,
2013-09-01 19:14:00,73.4,56.8,29.60,NW,315,0.0,0.0,56,0.00,,,0.00,WUHU216HW,2013-09-02 00:14:00,
2013-09-01 19:19:00,72.6,56.4,29.61,NW,315,0.0,0.0,58,0.00,,,0.00,WUHU216HW,2013-09-02 00:19:00,
2013-09-01 19:24:00,72.1,57.0,29.60,NNW,338,0.0,0.0,59,0.00,,,0.00,WUHU216HW,2013-09-02 00:24:00,
2013-09-01 19:29:00,71.4,56.8,29.60,NE,45,0.0,0.0,60,0.00,,,0.00,WUHU216HW,2013-09-02 00:29:00,
2013-09-01 19:34:00,71.2,56.6,29.61,NNE,23,0.0,0.0,60,0.00,,,0.00,WUHU216HW,2013-09-02 00:34:00,
2013-09-01 19:39:00,70.8,56.3,29.61,North,0,0.0,0.0,60,0.00,,,0.00,WUHU216HW,2013-09-02 00:39:00,
2013-09-01 19:44:00,70.8,56.7,29.61,NNE,23,0.0,0.0,61,0.00,,,0.00,WUHU216HW,2013-09-02 00:44:00,
2013-09-01 19:50:00,70.5,56.4,29.61,NNE,23,0.0,0.0,61,0.00,,,0.00,WUHU216HW,2013-09-02 00:50:00,
2013-09-01 19:55:00,70.3,56.7,29.61,NNE,23,0.0,0.0,62,0.00,,,0.00,WUHU216HW,2013-09-02 00:55:00,
2013-09-01 20:00:00,69.8,56.2,29.61,NNE,23,0.0,0.0,62,0.00,,,0.00,WUHU216HW,2013-09-02 01:00:00,
2013-09-01 20:05:00,69.4,56.2,29.62,NNE,23,0.0,0.0,63,0.00,,,0.00,WUHU216HW,2013-09-02 01:05:00,
2013-09-01 20:10:00,68.9,56.1,29.62,NNE,23,0.0,0.0,64,0.00,,,0.00,WUHU216HW,2013-09-02 01:10:00,
2013-09-01 20:15:00,68.5,55.8,29.62,NNE,23,0.0,0.0,64,0.00,,,0.00,WUHU216HW,2013-09-02 01:15:00,
2013-09-01 20:20:00,68.0,55.7,29.62,NNE,23,0.0,0.0,65,0.00,,,0.00,WUHU216HW,2013-09-02 01:20:00,
2013-09-01 20:25:00,67.2,55.6,29.62,NNE,23,0.0,0.0,66,0.00,,,0.00,WUHU216HW,2013-09-02 01:25:00,
2013-09-01 20:30:00,66.9,55.5,29.62,NNE,23,0.0,0.0,67,0.00,,,0.00,WUHU216HW,2013-09-02 01:30:00,